www.pogodaiklimat.ru

Погода и климат >> Архив погоды >> Россия >> Карелия >> Пудож


ПОГОДА в Пудоже

  • Прогноз погоды в Пудоже
  • Монитор погоды в Пудоже

АРХИВ ПОГОДЫ в Пудоже

Время (UTC), дата Ветер
(напр.,м/с)
 
Видим.   Явления Облачность Т
(С)
Тd
(С)
f
(%)
Тe
(С)
Тes
(С)
Комфортность P
(гПа)
Po
(гПа)
Тmin
(С)
Tmax
(С)
R
(мм)
R24
(мм)
S
(см)
12 15.01 ЮВ 1 20 км {снег} 10/10 750 м
[Cb cap]
-1.7 -3.4 88 -4 -4 987.0 981.5
15 15.01 В 1 2000 м слаб. снег 10/0
[As op]
-2.6 -3.6 93 -5 -5 987.2 981.7 0.7
18 15.01 В 1 2000 м слаб. снег 10/0
[As op]
-3.3 -4.0 95 -6 -6 986.8 981.3 -1.5 1
21 15.01 В 1 4000 м слаб. снег 10/0 450 м
[As op]
-3.4 -4.2 94 -6 -6 986.9 981.4
00 16.01 В 1 4000 м слаб. снег 10/10 180 м
[Frnb Ns]
-3.0 -3.7 95 -5 -5 986.6 981.1
03 16.01 В 1 4000 м слаб. снег 10/0 450 м
[As op]
-2.8 -3.5 95 -5 -5 986.5 981.0 -3.6 0.9
06 16.01 В 1 10 км {снег} 10/0 450 м
[As op]
-2.9 -3.9 93 -5 -5 986.5 981.0 -3.6 0.4 56
09 16.01 В 1 3500 м ливневой снег 10/10 300 м
[Cb cap]
-2.9 -3.9 93 -5 -5 987.3 981.8
12 16.01 штиль 0 3000 м слаб. ливневой снег 10/10 330 м
[Cb cap]
-3.1 -4.1 93 -4 -4 987.2 981.7
15 16.01 штиль 0 4000 м слаб. ливневой снег 10/10 210 м
[Cb cap]
-3.9 -4.4 96 -5 -5 987.5 982.0 2
18 16.01 ЮЗ 1 4000 м слаб. ливневой снег 10/10 300 м
[Cb cap]
-3.2 -3.9 95 -6 -6 987.7 982.2 -2.8 3
21 16.01 З 1 4000 м слаб. снег 10/10 210 м
[Frnb Ns]
-3.4 -4.2 94 -6 -6 988.1 982.6
00 17.01 З 3 4000 м слаб. снег 10/10 270 м
[Frnb Ns]
-4.0 -5.3 91 -9 -9 988.9 983.4
03 17.01 З 2 4000 м слаб. снег 10/0 300 м
[As op]
-5.0 -6.2 91 -9 -9 989.9 984.4 -5.0 0.9
06 17.01 штиль 0 4000 м слаб. снег 10/0 360 м
[As op]
-5.2 -6.2 93 -6 -6 989.7 984.2 -5.2 0.7 57
09 17.01 ЮЗ 2 3000 м слаб. ливневой снег 10/10 330 м
[Cb cap]
-4.3 -5.4 92 -9 -9 989.4 983.9
12 17.01 ЮВ 1 5000 м слаб. снег 10/0
[As op]
-5.4 -6.8 90 -8 -8 987.3 981.8
15 17.01 В 2 2000 м снег 10/0
[As op]
-6.1 -7.2 92 -11 -11 984.7 979.2 1
18 17.01 В 2 2000 м снег 10/0
[As op]
-6.6 -7.7 92 -11 -11 981.4 975.9 -4.2 3
21 17.01 В 2 2000 м снег 10/0
[As op]
-6.8 -7.9 92 -11 -11 979.0 973.5
00 18.01 СВ 2 4000 м слаб. снег 10/0 300 м
[As op]
-6.7 -7.8 92 -11 -11 978.7 973.2
03 18.01 штиль 0 10 км {снег} 10/10 420 м
[Cb cap]
-8.0 -9.0 92 -9 -9 980.7 975.1 -8.5 6
06 18.01 З 1 4000 м слаб. снег 9/8 1200 м
[Sc Ac trans]
-8.4 -9.4 92 -11 -11 981.8 976.2 -8.6 6 64
09 18.01 З 2 2100 м слаб. снег 9/6 1020 м
[Sc Ac trans]
-7.6 -8.8 91 -12 -12 985.2 979.6
12 18.01 З 2 20 км {снег} 9/4 600 м
[Sc Ac trans]
-8.5 -10.1 88 -13 -13 988.4 982.8
15 18.01 З 2 10 км 9/4 1000 м
[Sc Ac trans]
-9.4 -10.6 91 -14 -14 991.2 985.6 2
18 18.01 З 1 10 км 10/0
[Cs]
-9.9 -11.1 91 -12 -12 993.2 987.5 -7.4 0.7
21 18.01 З 1 10 км {снег} 9/6 930 м
[Sc Ac trans]
-11.4 -12.5 92 -14 -14 994.6 988.9
00 19.01 штиль 0 10 км {снег} 10/0 300 м
[As op]
-11.6 -13.0 89 -12 -12 995.4 989.7
03 19.01 З 1 4000 м слаб. снег 10/0 360 м
[As op]
-11.0 -12.2 91 -13 -13 995.7 990.0 -12.3 0.5
06 19.01 З 2 4000 м слаб. снег 10/0 300 м
[As op]
-11.4 -12.7 90 -16 -16 997.1 991.4 -12.3 1 65
09 19.01 З 1 3500 м слаб. снег 9/8 600 м
[Sc Ac trans]
-11.1 -12.6 89 -13 -13 998.7 993.0
12 19.01 З 1 10 км слаб. ливневой снег 9/8 300 м
[Cb cap Ac trans]
-9.8 -11.1 90 -12 -12 999.8 994.1
15 19.01 З 3 10 км {ливн. осадки} 10/10 180 м
[Frnb Ns]
-10.1 -11.1 92 -16 -16 1000.9 995.2 0.7
18 19.01 З 1 10 км {ливн. осадки} 9/8 1080 м
[Sc Ac trans]
-12.3 -13.6 90 -15 -15 1001.5 995.7 -9.5 0.2
21 19.01 штиль 0 10 км 9/9 630 м
[Sc]
-13.5 -14.8 90 -14 -14 1002.1 996.3
00 20.01 штиль 0 10 км 9/8 300 м
[Cb cap Ac trans]
-14.5 -16.0 88 -15 -15 1002.3 996.5
03 20.01 штиль 0 10 км 10/10 330 м
[Cb cap]
-15.1 -16.6 88 -15 -15 1001.8 996.0 -17.1
06 20.01 В 1 10 км 8/6 540 м
[Cb cap Ac trans]
-14.1 -15.7 88 -17 -17 1000.8 995.0 -17.1 65
09 20.01 В 1 2000 м слаб. ливневой снег 9/8 600 м
[Cb cap Ac trans]
-12.3 -13.7 89 -15 -14 1000.5 994.7
12 20.01 В 1 20 км {ливн. осадки} 6/3 600 м
[Cb cap Ac trans Ci fib]
-14.6 -16.0 89 -17 -17 999.7 993.9
15 20.01 штиль 0 10 км 3/0
[Ac trans]
-19.3 -20.8 88 -19 -19 999.9 994.0 0.4
18 20.01 СЗ 1 10 км 3/0
[Ac trans]
-22.6 -24.5 84 -26 -26 1000.8 994.8 -11.2 0.4
21 20.01 штиль 0 10 км 9/0
[Ac trans]
-24.2 -26.4 82 -24 -24 1002.6 996.5
00 21.01 З 1 10 км 8/0
[Ac trans]
-23.1 -25.2 83 -26 -26 1003.7 997.7
03 21.01 СЗ 1 10 км 9/0
[Ac trans]
-25.7 -28.0 81 -29 -29 1004.8 998.7 -26.2
06 21.01 З 1 4000 м слаб. снег 10/10 1000 м
[Sc]
-21.9 -24.3 81 -25 -25 1004.8 998.8 -26.2 0.0 65
09 21.01 штиль 0 10 км слаб. ливневой снег 8/3 300 м
[Cb cap Ci fib]
-19.8 -22.2 81 -20 -19 1006.0 1000.0
12 21.01 З 1 20 км {ливн. осадки, снег} 3/0
[Ac trans]
-21.1 -23.5 81 -24 -24 1006.8 1000.8
15 21.01 штиль 0 10 км 4/0
[Ac trans]
-25.2 -27.8 79 -25 -25 1008.5 1002.4 0.5
18 21.01 штиль 0 4000 м слаб. снег 9/8 1300 м
[Sc Ac trans]
-25.8 -28.3 79 -26 -26 1009.3 1003.2 -17.0 0.5
21 21.01 штиль 0 4000 м слаб. снег 10/0 450 м
[As op]
-21.3 -23.5 82 -21 -21 1009.8 1003.8
00 22.01 штиль 0 10 км {снег} 6/0
[Ac trans]
-25.7 -28.3 79 -26 -26 1009.8 1003.7
03 22.01 штиль 0 10 км 6/0
[Ci fib]
-28.5 -31.3 77 -29 -29 1010.3 1004.1 -28.6 0.2
06 22.01 штиль 0 10 км 8/0
[Ac trans Ci fib]
-27.1 -29.9 77 -27 -27 1009.9 1003.7 -28.8 0.2 65
09 22.01 штиль 0 20 км 8/3 600 м
[Sc Ci fib]
-20.9 -23.2 82 -21 -21 1009.3 1003.3

 

Местоположение метеостанции Пудож (Карелия, Россия): широта 61.80 долгота 36.52 высота над уровнем моря 44 м.

В архиве по умолчанию представлена погода в Пудоже за последнюю неделю. Архивные данные за месяц целиком и за предыдущие месяцы, начиная с января 2011 года, Вы можете получить, выбрав интересующий диапазон дат из раскрывающегося списка и нажав кнопку "Ввод!".


*Определитесь, кто Вы:
робот инопланетянин человек

Внимание! Время в таблицах - всемирное. Для получения местного времени необходимо прибавить поправку, которая равна 3 ч.

Смотрите также архив погоды в соседних городах и на ближайших метеорологических станциях:

Погода в Маячном (Карелия, Россия) (67 км)
Погода в Вытегре (Вологодская область, Россия) (87 км)
Погода в Вознесенье (Ленинградская область, Россия) (103 км)
Погода в Петрозаводске (Карелия, Россия) (118 км)
Погода в Кондопоге (Карелия, Россия) (123 км)
Погода в Каргополе (Архангельская область, Россия) (132 км)
Погода в Конево (Архангельская область, Россия) (150 км)
Погода в Пряже (Ленинградская область, Россия) (153 км)
Погода в Винницах (Ленинградская область, Россия) (160 км)
Погода в Медвежьегорске (Карелия, Россия) (165 км)

Пояснения к столбцам:

Ветер - указаны скорость ветра в м/с - средняя за 10 мин, порывы в срок и между сроками (в фигурных скобках) и направление, откуда дует ветер: С - северный, СВ - северо-восточный, В - восточный, ЮВ - юго-восточный, Ю - южный, ЮЗ - юго-западный, З - западный, СЗ - северо-западный.
Видимость - горизонтальная дальность видимости в метрах или километрах. При видимости от 1 до 10 км при отсутствии осадков обычно наблюдается дымка, при ухудшении видимости до 1 км и менее - туман. В сухую погоду видимость может ухудшаться дымом, пылью или мглою.
Явления - указаны атмосферные явления, наблюдавшиеся в срок или в последний час перед сроком; фигурными скобками обозначены явления, наблюдавшиеся между сроками (за 1-3 часа до срока); квадратными скобками обозначены град или гололедные отложения с указанием их диаметра в мм.
Облачность - указаны через наклонную черту общая и нижняя облачность в баллах и высота нижней границы облаков в метрах; квадратными скобками обозначены формы облаков: Ci - перистые, Cs - перисто-слоистые, Cc - перисто-кучевые, Ac - высококучевые, As - высокослоистые, Sc - слоисто-кучевые, Ns - слоисто-дождевые, Cu - кучевые, Cb - кучево-дождевые. Подробнее классификацию облаков см. в Атласе облаков (PDF).
T - Температура воздуха - температура, измеренная на высоте 2 м над землей.
Td - Температура точки росы - температура, при понижении до которой содержащийся в воздухе водяной пар достигнет насыщения.
f - Относительная влажность воздуха - влажноcть воздуха, измеренная на высоте 2 м над землей.
Te - Эффективная температура - температура, которую ощущает одетый по сезону человек в тени. Характеристика душности погоды. При расчете учитывается влияние влажности воздуха и скорости ветра на теплоощущения человека.
Tes - Эффективная температура на солнце - температура, которую ощущает человек, с поправкой на солнечный нагрев. Характеристика знойности погоды. Зависит от высоты солнца над горизонтом, облачности и скорости ветра. Ночью, в пасмурную погоду, а также при ветре 12 м/с и более поправка равна нулю.
P - Атмосферное давление - приведенное к уровню моря атмосферное давление.
Po - Атмосферное давление - измеренное на уровне метеостанции атмосферное давление.
Tmin - Минимальная температура - минимум температуры воздуха на высоте 2 м над землей.
Tmax - Максимальная температура - максимум температуры воздуха на высоте 2 м над землей.
R - Количество осадков - Количество выпавших осадков за период времени, мм. При наведении курсора мыши на число - период времени, за который выпало указанное количество осадков.
R24 - Количество осадков - Количество выпавших осадков за 24 часа, мм.
S - Снежный покров - Высота снежного покрова, см. При наведении курсора мыши на число - состояние снежного покрова и степень покрытия местности в баллах.